Weather History for Paganella, Italy

Change the Weather History Date:

Thursday, November 15, 2012

  Actual Average Record
Temperature  
Mean Temperature 38 °F -  
Max Temperature 42 °F 32 °F 42 °F (2011)
Min Temperature 35 °F 24 °F 8 °F (2007)
Degree Days  
Heating Degree Days 26    
Moisture  
Dew Point -7 °F    
Average Humidity 14    
Maximum Humidity 41    
Minimum Humidity 4    
Precipitation  
Precipitation 0.00 in 0.05 in - ()
Sea Level Pressure  
Sea Level Pressure 30.15 in    
Wind  
Wind Speed 8 mph ()    
Max Wind Speed 16 mph    
Max Gust Speed -    
Averages and records for this station are not official NWS values.
T = Trace of Precipitation, MM = Missing Value Source: Averaged Metar Reports

Daily Weather History Graph

Daily Weather History Graph

Search for Another Location

Airport:

Trip Planner

Search our weather history database for the weather conditions in past years. The results will help you decide how hot, cold, wet, or windy it might be!

Date:

Astronomy

Nov. 15, 2012 Rise Set
Actual Time 7:17 AM CET 4:43 PM CET
Civil Twilight 6:44 AM CET 5:16 PM CET
Nautical Twilight 6:08 AM CET 5:52 PM CET
Astronomical Twilight 5:32 AM CET 6:27 PM CET
Moon 8:58 AM CET (11/15) 6:12 PM CET (11/15)
Length of Visible Light 10h 31m
Length of Day
9h 26m
Waxing Crescent, 4% of the Moon is Illuminated
Nov 15
Waxing Crescent
Nov 20
First Quarter
Nov 28
Full
Dec 6
Last Quarter
Dec 13
New

Hourly Weather History & Observations

Time (CET) Temp. Windchill Dew Point Humidity Pressure Visibility Wind Dir Wind Speed Gust Speed Precip Events Conditions
12:55 AM 35.6 °F 26.6 °F 14.0 °F 41% 30.21 in - North 13.8 mph - N/A   Clear
1:00 AM 36 °F - 14 °F 26%  in 25 mi North 13.8 mph - -   Partly Cloudy
1:55 AM 35.6 °F 25.9 °F 12.2 °F 38% 30.21 in - North 16.1 mph - N/A   Clear
2:55 AM 37.4 °F 28.9 °F 6.8 °F 28% 30.18 in - North 13.8 mph - N/A   Clear
3:55 AM 37.4 °F 29.8 °F 5.0 °F 26% 30.18 in - North 11.5 mph - N/A   Clear
4:00 AM 37 °F - 4 °F 13%  in 25 mi North 11.5 mph - -  
4:55 AM 37.4 °F 29.8 °F 3.2 °F 24% 30.18 in - North 11.5 mph - N/A   Clear
5:55 AM 39.2 °F 33.0 °F -5.8 °F 15% 30.18 in - NNE 9.2 mph - N/A   Clear
6:55 AM 39.2 °F 33.0 °F -13.0 °F 10% 30.15 in - North 9.2 mph - N/A   Clear
7:00 AM 39 °F - -13 °F 4%  in 37 mi North 9.2 mph - -  
7:55 AM 37.4 °F 31.4 °F -14.8 °F 10% 30.15 in - NNE 8.1 mph - N/A   Clear
8:55 AM 37.4 °F 31.4 °F -11.2 °F 12% 30.15 in - NE 8.1 mph - N/A   Clear
9:55 AM 41.0 °F 35.2 °F -11.2 °F 11% 30.18 in - East 9.2 mph - N/A   Clear
10:00 AM 41 °F - -11 °F 4%  in 44 mi East 9.2 mph - -  
10:55 AM 42.8 °F - -22.0 °F 6% 30.18 in - Variable 2.3 mph - N/A   Clear
11:55 AM 42.8 °F 41.1 °F -5.8 °F 13% 30.18 in - Variable 3.5 mph - N/A   Clear
12:55 PM 42.8 °F - -5.8 °F 13% 30.15 in - Calm Calm - N/A   Clear
1:00 PM 43 °F - -7 °F 4%  in 44 mi Calm Calm - -  
1:55 PM 42.8 °F - 1.4 °F 18% 30.12 in - Variable 2.3 mph - N/A   Clear
2:55 PM 42.8 °F - -9.4 °F 11% 30.12 in - Variable 2.3 mph - N/A   Clear
3:55 PM 41.0 °F 39.0 °F -13.0 °F 10% 30.12 in - North 3.5 mph - N/A   Clear
4:00 PM 42 °F - -13 °F 4%  in 44 mi North 3.5 mph - -   Partly Cloudy
4:55 PM 41.0 °F 37.1 °F -11.2 °F 11% 30.12 in - NNE 5.8 mph - N/A   Clear
5:55 PM 39.2 °F 34.2 °F -13.0 °F 10% 30.12 in - East 6.9 mph - N/A   Clear
6:55 PM 39.2 °F 35.0 °F -16.6 °F 9% 30.12 in - East 5.8 mph - N/A   Clear
7:00 PM 40 °F - -17 °F 4%  in 44 mi East 5.8 mph - -  
8:55 PM 37.4 °F - -14.8 °F 10% 30.12 in - SSE 2.3 mph - N/A   Clear
9:55 PM 37.4 °F 34.9 °F -14.8 °F 10% 30.12 in - SW 3.5 mph - N/A   Clear
10:00 PM 37 °F - -14 °F 4%  in 44 mi SW 3.5 mph - -  
10:55 PM 37.4 °F 32.8 °F -9.4 °F 13% 30.12 in - WSW 5.8 mph - N/A   Clear
11:55 PM 37.4 °F 32.8 °F -11.2 °F 12% 30.12 in - SW 5.8 mph - N/A   Clear